IRIDIUM 150 (43257 NORAD) Tracking and Keplerian Element Data

This shows tracking and keplerian element data for the satellite.

Feedback or suggestion? Click here.




ElementValue
Catalog43257
NameIRIDIUM 150
Epoch Orbit423
Epoch Day118.467703
Epoch Year2018
RAAN92.3496
Inclination86.5196
Eccentricity0.0001566
Argument of Perigee79.1373
Mean Anonmoly281.001
Mean Motion14.53016524
Decay Rate7.8E-07
L11 43257U 18030J 18118.46770300 .00000078 00000-0 13692-4 0 9999
L22 43257 86.5196 92.3496 0001566 79.1373 281.0010 14.53016524 4231

Live tracking and technical data element details for IRIDIUM 150 (NORAD 43257). IRIDIUM 150 can be tracked NOW for your location showing map with azimuth and elevation plus other details from your city location.

Track the satellite on the map from your city or location and see movement details for azimuth, elevation, latitude, longitude, range, height, and movement on the map or in text.







IsCatalogInMostPopularTable: catalog: 43257, numindb: 63
Update: records affected: 1



GetName: 43257 IRIDIUM 150

Hit Count: updated at: Tue, 20 Nov 2018 08:44:07 GMT